Showing default

LEMUR 2 AHMED-ASRAR, 60576

Orbit data source: Space-Track

LEMUR 2 AHMED-ASRAR, 60576 is an American payload satellite in SSO that was launched on Fri, 16 Aug 2024 UTC via an FALCON 9 launch vehicle from the Air Force Western Test Range (AFWTR). Payload-class satellites include a variety of spacecraft equipped with specific instruments for various scientific and technological missions. These include communications satellites like Starlink; space stations such as the ISS; scientific satellites like the Hubble; Earth observation satellites from companies like Planet Labs, Umbra, and HawkEye 360; GPS; miniature CubeSats for education and research; and military/defense satellites.

Loading next visibility...
Identifier
60576, 2024-149DN
Orbit
SSO
Country
Flag of USUS
Related business
Manufacturer
Spire/Glasgow
Mission
Operational Commercial Com/MetRO
Bus & Motor
CUBESAT 3U, Unknown motor
Mass
7.6 kg wet, 7.6 kg dry
Launch date (UTC)
2024-08-16 (1 year ago)
Launch vehicle
FALCON 9
Launch site
Air Force Western Test Range (AFWTR)
Object type
Payload
Rocket body
Debris
Shape & HBR
Box + 2 Pan, 0.5 m
Radar Cross Section
0.063 m², Small (<0.1 m²)

Expand to show TLE details & history
Last TLE update: 17 hours ago

TLE from 17 hours ago
0 LEMUR 2 AHMED-ASRAR
1 60576U 24149DN  26034.47036494  .00013023  00000-0  81712-3 0  9997
2 60576  97.7084 118.5323 0003470 101.2697 258.8922 15.09433335 80374
Epoch: 2026-02-03T11:17Z
TLE epoch observation values (Epoch: 2026-02-03T11:17:19.530Z)
Latitude
-0.00001°
Longitude
175.55009°
Altitude
541.461 km
Speed
7.591 km/s
True Right ascension
07h 54m 07s
True Declination
0° 00' 00"
Sunlit
Object was in full shadow at epoch
Visualization orbit readout
Latitude
Unknown
Longitude
Unknown
Altitude
Unknown
Speed
Unknown
Apparent Right ascension
Unknown
Apparent Declination
Unknown
Sunlit
N/A
Visualization observer readout
Local Sidereal Time
05:57:26
Azimuth
Unknown
Elevation
Unknown
Doppler factor
Unknown
Orbital elements
Apogee altitude
537.322 km
Perigee altitude
532.525 km
Semi-major axis
6,913.06 km
Eccentricity
0.00035
Inclination
97.7084°
RAAN
118.5323°
Arg. of periapsis
101.2697°
True anomaly
258.85318°
Mean anomaly
258.8922°
Eccentric anomaly
258.87269°
Mean motion
3.77605 °/min
Orbital period
95.34 mins
BSTAR
0.00081712
Loading maneuver chart data...
Computing Atmospheric mass density...
Loading historical data...
Loading historical data...
Loading historical data...
Loading historical data...
Loading historical data...
Loading historical data...
Loading historical data...

Documentation

Showing up to 5 results
|